Location: Bagnolo San Vito
(45.0833°N, 10.8833°E)
Time: 00:05:12
(UTC+00:00)

Cosmos 2263 Rocket - Pass Details

Date: 03 March 2021
Orbit: 825 x 847 km, 71.0° (Epoch: 17 April)

Event Time Altitude Azimuth Distance (km) Brightness Sun altitude
Rises 17:48:18 0° 329° (NNW) 3,371 5.8 -8.1°
Reaches altitude 10° 17:50:49 10° 324° (NW) 2,434 5.1 -8.6°
Maximum altitude 17:56:08 48° 252° (WSW) 1,077 3.3 -9.5°
Drops below altitude 10° 18:01:25 10° 179° (S) 2,422 4.6 -10.5°
Sets 18:03:55 0° 174° (S) 3,353 5.2 -10.9°
